Sault Sainte Marie, MI

6:21 PM EST on February 09, 2016 (GMT -0500)
Sault Ste Marie Municipal / Sanderson Field

Weather History for KANJ - September, 2013

Change the Weather History Date:

Sunday, September 15, 2013

  Actual Average Record
Temperature  
Mean Temperature 52 °F 58 °F  
Max Temperature 61 °F 67 °F 89 °F (1939)
Min Temperature 43 °F 48 °F 32 °F (1959)
Degree Days  
Heating Degree Days 13 8  
Month to date heating degree days 104 92  
Since 1 July heating degree days 220 239  
Cooling Degree Days 0 1  
Month to date cooling degree days 12 15  
Year to date cooling degree days 264 193  
Growing Degree Days 2 (Base 50)    
Moisture  
Dew Point 51 °F    
Average Humidity 82    
Maximum Humidity 93    
Minimum Humidity 70    
Precipitation  
Precipitation 0.12 in 0.12 in 1.81 in (1920)
Month to date precipitation 5.83 1.85  
Year to date precipitation 34.12 21.02  
Sea Level Pressure  
Sea Level Pressure 30.02 in    
Wind  
Wind Speed 7 mph (WNW)    
Max Wind Speed 15 mph    
Max Gust Speed 23 mph    
Visibility 9 miles    
Events Rain    
T = Trace of Precipitation, MM = Missing Value Source: NWS Daily Summary

Daily Weather History Graph

Daily Weather History Graph

Search for Another Location

Airport or City:

Trip Planner

Search our weather history database for the weather conditions in past years. The results will help you decide how hot, cold, wet, or windy it might be!

Date:

Astronomy

Sep. 15, 2013 Rise Set
Actual Time 7:15 AM EDT 7:48 PM EDT
Civil Twilight 6:45 AM EDT 8:18 PM EDT
Nautical Twilight 6:09 AM EDT 8:54 PM EDT
Astronomical Twilight 5:32 AM EDT 9:31 PM EDT
Moon 5:25 PM EDT (9/15) 2:40 AM EDT (9/15)
Length of Visible Light 13h 33m
Length of Day
12h 32m
Waxing Gibbous, 82% of the Moon is Illuminated
Sep 15
Waxing Gibbous
Sep 19
Full
Sep 26
Last Quarter
Oct 4
New
Oct 11
First Quarter

Hourly Weather History & Observations

Time (EDT) Temp. Windchill Dew Point Humidity Pressure Visibility Wind Dir Wind Speed Gust Speed Precip Events Conditions
12:36 AM 55.0 °F - 52.0 °F 89% 29.96 in 10.0 mi Calm Calm - N/A   Scattered Clouds
12:55 AM 55.0 °F - 51.1 °F 86% 29.95 in 10.0 mi Calm Calm - N/A   Clear
1:55 AM 55.0 °F - 52.0 °F 89% 29.94 in 10.0 mi East 3.5 mph - N/A   Clear
2:55 AM 57.9 °F - 54.0 °F 87% 29.94 in 10.0 mi SW 4.6 mph - N/A   Clear
3:55 AM 57.9 °F - 54.0 °F 87% 29.93 in 10.0 mi Calm Calm - N/A   Mostly Cloudy
4:55 AM 59.0 °F - 55.0 °F 87% 29.94 in 10.0 mi WSW 6.9 mph - N/A   Mostly Cloudy
5:55 AM 61.0 °F - 53.1 °F 75% 29.95 in 10.0 mi West 10.4 mph 19.6 mph N/A   Mostly Cloudy
6:55 AM 59.0 °F - 53.1 °F 81% 29.97 in 10.0 mi West 9.2 mph - 0.00 in Rain Light Rain
7:06 AM 59.0 °F - 53.1 °F 81% 29.97 in 10.0 mi West 5.8 mph - 0.00 in Rain Light Rain
7:55 AM 57.9 °F - 54.0 °F 87% 29.97 in 10.0 mi West 4.6 mph - 0.01 in   Overcast
8:21 AM 57.9 °F - 54.0 °F 87% 29.97 in 10.0 mi West 4.6 mph - 0.00 in Rain Light Rain
8:55 AM 57.9 °F - 55.0 °F 90% 29.98 in 10.0 mi West 4.6 mph - 0.00 in Rain Light Rain
9:03 AM 57.9 °F - 55.0 °F 90% 29.97 in 10.0 mi WSW 4.6 mph - 0.00 in Rain Light Rain
9:55 AM 57.9 °F - 55.0 °F 90% 29.98 in 10.0 mi West 4.6 mph - 0.01 in Rain Light Rain
10:29 AM 57.9 °F - 55.0 °F 90% 29.99 in 10.0 mi SW 5.8 mph - 0.01 in Rain Light Rain
10:55 AM 57.9 °F - 55.0 °F 90% 29.99 in 9.0 mi WSW 4.6 mph - 0.02 in Rain Light Rain
11:51 AM 59.0 °F - 55.4 °F 88% 29.99 in 10.0 mi WSW 5.8 mph - 0.01 in Rain Light Rain
11:55 AM 59.0 °F - 55.9 °F 90% 29.99 in 10.0 mi WSW 5.8 mph - 0.01 in Rain Light Rain
12:55 PM 59.0 °F - 55.9 °F 90% 30.00 in 8.0 mi West 4.6 mph - 0.02 in Rain Light Rain
1:23 PM 59.0 °F - 55.9 °F 90% 29.99 in 10.0 mi West 5.8 mph - 0.01 in   Overcast
1:55 PM 59.0 °F - 55.9 °F 90% 30.00 in 10.0 mi WSW 5.8 mph - 0.01 in   Overcast
2:55 PM 59.0 °F - 55.0 °F 87% 29.99 in 10.0 mi SW 4.6 mph - 0.00 in   Overcast
3:31 PM 57.9 °F - 55.0 °F 90% 29.99 in 4.0 mi West 6.9 mph - 0.00 in Rain Light Rain
3:33 PM 57.9 °F - 55.0 °F 90% 29.99 in 3.0 mi West 8.1 mph - 0.00 in Rain Light Rain
3:37 PM 57.0 °F - 54.0 °F 89% 29.99 in 1.8 mi West 10.4 mph - 0.01 in Rain Rain
3:45 PM 57.0 °F - 55.0 °F 93% 29.99 in 2.5 mi WSW 5.8 mph - 0.02 in Rain Light Rain
3:52 PM 57.2 °F - 53.6 °F 88% 29.99 in 2.5 mi West 10.4 mph 18.4 mph 0.03 in Rain Light Rain
3:55 PM 57.0 °F - 55.0 °F 93% 29.99 in 2.5 mi West 11.5 mph 18.4 mph 0.04 in Rain Light Rain
3:57 PM 57.0 °F - 55.0 °F 93% 30.00 in 2.5 mi WNW 9.2 mph 18.4 mph 0.00 in Rain Light Rain
4:05 PM 57.9 °F - 55.9 °F 93% 30.00 in 7.0 mi NW 8.1 mph - 0.00 in Rain Light Rain
4:48 PM 53.1 °F - 50.0 °F 89% 30.02 in 10.0 mi NE 8.1 mph - 0.00 in   Overcast
4:55 PM 53.1 °F - 50.0 °F 89% 30.03 in 10.0 mi NNE 8.1 mph - 0.00 in   Overcast
5:22 PM 52.0 °F - 46.9 °F 83% 30.04 in 10.0 mi NNE 9.2 mph 17.3 mph N/A   Overcast
5:45 PM 51.1 °F - 46.0 °F 83% 30.05 in 10.0 mi NNE 11.5 mph - N/A   Overcast
5:55 PM 51.1 °F - 46.0 °F 83% 30.06 in 10.0 mi NNE 6.9 mph - N/A   Overcast
6:55 PM 50.0 °F - 44.1 °F 80% 30.10 in 10.0 mi NE 5.8 mph - N/A   Overcast
7:03 PM 50.0 °F - 44.1 °F 80% 30.10 in 10.0 mi North 9.2 mph - N/A   Overcast
7:55 PM 48.9 °F - 42.1 °F 77% 30.12 in 10.0 mi North 11.5 mph - N/A   Overcast
8:55 PM 48.9 °F - 41.0 °F 74% 30.16 in 10.0 mi North 10.4 mph - N/A   Overcast
9:55 PM 46.9 °F - 37.9 °F 71% 30.19 in 10.0 mi NNE 9.2 mph - N/A   Overcast
10:55 PM 44.1 °F 39.0 °F 35.1 °F 71% 30.22 in 10.0 mi NNE 9.2 mph 16.1 mph N/A   Overcast
11:55 PM 43.0 °F 37.2 °F 34.0 °F 71% 30.25 in 10.0 mi NE 10.4 mph - N/A   Overcast